2023/03/11 00:00:00,84.4, 3.5
2023/03/11 00:10:00,84.4, 3.6
2023/03/11 00:20:00,84.4, 3.5
2023/03/11 00:30:00,84.5, 3.5
2023/03/11 00:40:00,84.5, 4.2
2023/03/11 00:50:00,84.4, 4.2
2023/03/11 01:00:00,84.5, 4.0
2023/03/11 01:10:00,84.5, 4.2
2023/03/11 01:20:00,84.4, 4.2
2023/03/11 01:30:00,84.3, 3.9
2023/03/11 01:40:00,84.4, 4.1
2023/03/11 01:50:00,84.4, 4.1
2023/03/11 02:00:00,84.4, 4.1
2023/03/11 02:10:00,84.4, 4.2
2023/03/11 02:20:00,84.4, 4.5
2023/03/11 02:30:00,84.3, 4.1
2023/03/11 02:40:00,84.4, 4.3
2023/03/11 02:50:00,84.4, 4.4
2023/03/11 03:00:00,84.4, 4.2
2023/03/11 03:10:00,84.4, 4.1
2023/03/11 03:20:00,84.3, 4.0
2023/03/11 03:30:00,84.2, 4.1
2023/03/11 03:40:00,84.1, 4.1
2023/03/11 03:50:00,84.1, 4.1
2023/03/11 04:00:00,84.1, 4.0
2023/03/11 04:10:00,84.2, 3.7
2023/03/11 04:20:00,84.1, 3.7
2023/03/11 04:30:00,84.1, 3.9
2023/03/11 04:40:00,84.2, 3.8
2023/03/11 04:50:00,84.2, 3.7
2023/03/11 05:00:00,84.1, 3.6
2023/03/11 05:10:00,84.1, 3.9
2023/03/11 05:20:00,84.0, 3.8
2023/03/11 05:30:00,83.9, 4.0
2023/03/11 05:40:00,83.9, 4.3
2023/03/11 05:50:00,84.1, 4.2
2023/03/11 06:00:00,84.0, 4.0
2023/03/11 06:10:00,84.0, 4.4
2023/03/11 06:20:00,83.9, 4.2
2023/03/11 06:30:00,83.8, 4.5
2023/03/11 06:40:00,83.8, 4.2
2023/03/11 06:50:00,83.9, 4.3
2023/03/11 07:00:00,84.0, 4.4
2023/03/11 07:10:00,84.0, 4.7
2023/03/11 07:20:00,84.0, 4.6
2023/03/11 07:30:00,84.1, 5.2
2023/03/11 07:40:00,83.9, 5.1
2023/03/11 07:50:00,84.1, 5.6
2023/03/11 08:00:00,84.1, 5.7
2023/03/11 08:10:00,84.2, 5.7
2023/03/11 08:20:00,84.2, 5.9
2023/03/11 08:30:00,84.4, 6.3
2023/03/11 08:40:00,84.3, 6.7
2023/03/11 08:50:00,84.6, 7.4
2023/03/11 09:00:00,84.5, 7.8
2023/03/11 09:10:00,84.2, 8.2
2023/03/11 09:20:00,84.2, 8.7
2023/03/11 09:30:00,84.3, 8.7
2023/03/11 09:40:00,84.2, 9.2
2023/03/11 09:50:00,84.2, 9.2
2023/03/11 10:00:00,84.2, 9.6
2023/03/11 10:10:00,106.9, 9.6
2023/03/11 10:20:00,159.6,10.6
2023/03/11 10:30:00,159.6,10.9
2023/03/11 10:40:00,159.7,11.3
2023/03/11 10:50:00,160.0,11.7
2023/03/11 11:00:00,160.0,11.7
2023/03/11 11:10:00,160.0,11.9
2023/03/11 11:20:00,137.7,11.8
2023/03/11 11:30:00,---,13.1
2023/03/11 11:40:00,84.6,12.5
2023/03/11 11:50:00,84.5,11.8
2023/03/11 12:00:00,84.3,12.1
2023/03/11 12:10:00,84.0,12.0
2023/03/11 12:20:00,83.8,11.6
2023/03/11 12:30:00,83.7,11.7
2023/03/11 12:40:00,83.5,11.3
2023/03/11 12:50:00,83.4,10.4
2023/03/11 13:00:00,83.4,10.4
2023/03/11 13:10:00,83.4,10.5
2023/03/11 13:20:00,83.3,10.7
2023/03/11 13:30:00,83.2,10.7
2023/03/11 13:40:00,120.4,11.5
2023/03/11 13:50:00,120.5,11.7
2023/03/11 14:00:00,82.8,10.9
2023/03/11 14:10:00,82.7,11.7
2023/03/11 14:20:00,82.5,11.3
2023/03/11 14:30:00,82.4,10.9
2023/03/11 14:40:00,81.9,10.6
2023/03/11 14:50:00,81.6,10.5
2023/03/11 15:00:00,81.5,10.7
2023/03/11 15:10:00,81.1, 9.9
2023/03/11 15:20:00,80.8, 9.6
2023/03/11 15:30:00,80.8, 9.3
2023/03/11 15:40:00,80.5, 9.1
2023/03/11 15:50:00,80.4, 8.9
2023/03/11 16:00:00,80.0, 8.8
2023/03/11 16:10:00,79.7, 8.6
2023/03/11 16:20:00,79.6, 8.1
2023/03/11 16:30:00,79.5, 8.2
2023/03/11 16:40:00,79.4, 7.8
2023/03/11 16:50:00,79.3, 7.7
2023/03/11 17:00:00,79.3, 7.6
2023/03/11 17:10:00,79.3, 7.4
2023/03/11 17:20:00,79.4, 7.3
2023/03/11 17:30:00,79.4, 6.6
2023/03/11 17:40:00,79.6, 6.6
2023/03/11 17:50:00,79.6, 6.6
2023/03/11 18:00:00,79.5, 6.6
2023/03/11 18:10:00,79.5, 6.1
2023/03/11 18:20:00,79.3, 6.0
2023/03/11 18:30:00,79.3, 5.8
2023/03/11 18:40:00,79.3, 5.8
2023/03/11 18:50:00,79.3, 5.6
2023/03/11 19:00:00,79.4, 5.6
2023/03/11 19:10:00,79.4, 5.4
2023/03/11 19:20:00,79.3, 5.5
2023/03/11 19:30:00,79.3, 5.4
2023/03/11 19:40:00,79.3, 5.3
2023/03/11 19:50:00,79.2, 5.4
2023/03/11 20:00:00,79.2, 5.3
2023/03/11 20:10:00,79.2, 5.5
2023/03/11 20:20:00,79.2, 5.6
2023/03/11 20:30:00,79.2, 5.5
2023/03/11 20:40:00,79.2, 5.7
2023/03/11 20:50:00,79.2, 5.6
2023/03/11 21:00:00,79.2, 5.6
2023/03/11 21:10:00,79.2, 5.7
2023/03/11 21:20:00,79.1, 5.3
2023/03/11 21:30:00,79.2, 5.5
2023/03/11 21:40:00,79.2, 5.4
2023/03/11 21:50:00,79.2, 5.3
2023/03/11 22:00:00,79.3, 5.7
2023/03/11 22:10:00,79.2, 5.8
2023/03/11 22:20:00,79.2, 5.6
2023/03/11 22:30:00,79.1, 5.9
2023/03/11 22:40:00,79.1, 5.9
2023/03/11 22:50:00,79.1, 5.6
2023/03/11 23:00:00,79.2, 5.5
2023/03/11 23:10:00,79.1, 5.5
2023/03/11 23:20:00,79.2, 4.8
2023/03/11 23:30:00,79.2, 5.0
2023/03/11 23:40:00,79.2, 5.2
2023/03/11 23:50:00,79.1, 5.2
